Location: ??????
(41.3164°N, 22.6615°E)
Time: 17:16:38
(UTC+00:00)

Cosmos 1300 - Pass Details

Date: 29 May 2022
Orbit: 506 x 508 km, 82.5° (Epoch: 01 July)

Event Time Altitude Azimuth Distance (km) Brightness Sun altitude
Rises 23:48:24 0° 338° (NNW) 2,618 7.0 -24.2°
Reaches altitude 10° 23:50:50 10° 323° (NW) 1,727 5.7 -24.0°
Enters shadow 23:52:28 18° 301° (WNW) 1,280 4.7 -23.9°
